Flag for South Africa Weather past 2 weeks in Cape Town, South Africa

Now
72 °F

Partly sunny.


Feels Like: 77 °F
Forecast: 62 / 74 °F
Wind: 9 mph from Southwest

Location: Cape Town International Airport

Current Time: Dec 21, 2014 at 6:53:12 PM

Latest Report: Dec 21, 2014 at 6:00 PM


Visibility: N/A

Pressure: 29.98 "Hg

Humidity: 53%

Dew point: 54 °F

Location of Cape TownLocation

Historic Weather in Cape Town — Graph

°F

Cape Town temperature yesterday

Maximum temperature yesterday: 75 °F (at 2:00 PM)
Minimum temperature yesterday: 61 °F (at 12:00 AM)
Average temperature yesterday: 67 °F

Past Weeks' High & Low Weather Summary

 TemperatureHumidityPressure
High86 °F (Dec 7, 12:00 PM)94% (Dec 9, 2:00 AM)30.12 "Hg (Dec 9, 2:00 AM)
Low59 °F (Dec 8, 5:00 AM)37% (Dec 13, 12:00 PM)29.77 "Hg (Dec 8, 7:00 PM)
Average68 °F64%29.98 "Hg
* Reported Dec 6 5:00 PM — Dec 21 5:00 PM, Cape Town, Weather by CustomWeather, © 2014

Note: Actual official high and low records may vary slightly from our data, if they occured in-between our weather recording intervals... More about our weather records

Advertising

Cape Town weather history for previous 24 hours

 ConditionsComfort  
Time TempWeatherWind HumidityBarometerVisibility
5:00 PM
Dec 21
73 °FPartly sunny.7 mph53%29.98 "HgN/A
4:00 PM72 °FPartly sunny.12 mph57%29.98 "HgN/A
3:00 PM72 °FPartly sunny.9 mph53%29.98 "HgN/A
2:00 PM72 °FPartly sunny.9 mph50%30.01 "HgN/A
1:00 PM73 °FScattered clouds.10 mph47%30.01 "HgN/A
12:00 PM72 °FPartly sunny.10 mph50%30.04 "HgN/A
11:00 AM72 °FPartly sunny.9 mph50%30.01 "HgN/A
10:00 AM70 °FPartly sunny.9 mph53%30.01 "HgN/A
9:00 AM68 °FPartly sunny.7 mph53%30.01 "HgN/A
8:00 AM66 °FPartly sunny.6 mph56%30.01 "HgN/A
7:00 AM64 °FScattered clouds.5 mph60%29.98 "HgN/A
5:00 AM63 °FPartly sunny.3 mph64%29.98 "HgN/A
4:00 AM61 °FPassing clouds.3 mph68%29.98 "HgN/A
3:00 AM61 °FPassing clouds.5 mph63%29.98 "HgN/A
2:00 AM61 °FPassing clouds.5 mph68%30.01 "HgN/A
1:00 AM63 °FPassing clouds.5 mph64%30.01 "HgN/A
12:00 AM63 °FPassing clouds.8 mph64%30.04 "HgN/A
11:00 PM
Dec 20
63 °FPassing clouds.7 mph64%30.04 "HgN/A
10:00 PM64 °FClear.8 mph60%30.04 "Hg10 mi
9:00 PM64 °FPassing clouds.12 mph64%30.04 "HgN/A
8:00 PM66 °FPassing clouds.12 mph56%30.01 "HgN/A
7:00 PM68 °FClear.15 mph46%30.01 "Hg10 mi
6:00 PM70 °FSunny.15 mph46%30.01 "Hg10 mi
Weather by CustomWeather, © 2014

See weather overviewHow to use our weather pages